Alma, MI

5:51 AM EST on February 07, 2016 (GMT -0500)
Gratiot Community

Weather History for KAMN - January, 2014

Change the Weather History Date:

Friday, January 24, 2014

  Actual Average Record
Temperature  
Mean Temperature 8 °F -  
Max Temperature 20 °F 31 °F 54 °F (1989)
Min Temperature -3 °F 14 °F -13 °F (1963)
Degree Days  
Heating Degree Days 56    
Moisture  
Dew Point 5 °F    
Average Humidity 77    
Maximum Humidity 92    
Minimum Humidity 53    
Precipitation  
Precipitation 0.00 in - - ()
Sea Level Pressure  
Sea Level Pressure 29.92 in    
Wind  
Wind Speed 12 mph (SSW)    
Max Wind Speed 25 mph    
Max Gust Speed 43 mph    
Visibility 4 miles    
Events Snow    
Averages and records for this station are not official NWS values.
T = Trace of Precipitation, MM = Missing Value Source: NWS Daily Summary

Daily Weather History Graph

Daily Weather History Graph

Search for Another Location

Airport or City:

Trip Planner

Search our weather history database for the weather conditions in past years. The results will help you decide how hot, cold, wet, or windy it might be!

Date:

Astronomy

Jan. 24, 2014 Rise Set
Actual Time 8:02 AM EST 5:40 PM EST
Civil Twilight 7:31 AM EST 6:11 PM EST
Nautical Twilight 6:56 AM EST 6:45 PM EST
Astronomical Twilight 6:22 AM EST 7:19 PM EST
Moon 1:26 AM EST (1/24) 12:00 PM EST (1/24)
Length of Visible Light 10h 39m
Length of Day
9h 37m
Last Quarter, 45% of the Moon is Illuminated
Jan 24
Last Quarter
Jan 30
New
Feb 6
First Quarter
Feb 14
Full
Feb 22
Last Quarter

Hourly Weather History & Observations

Time (EST) Temp. Windchill Dew Point Humidity Pressure Visibility Wind Dir Wind Speed Gust Speed Precip Events Conditions
12:12 AM -3.5 °F -11.8 °F -7.2 °F 84% 30.39 in 10.0 mi South 3.5 mph - N/A   Overcast
12:27 AM -2.2 °F -10.4 °F -6.0 °F 84% 30.38 in 10.0 mi South 3.5 mph - N/A   Overcast
12:49 AM 3.2 °F -7.8 °F -2.7 °F 76% 30.37 in 10.0 mi South 5.8 mph - N/A   Overcast
1:09 AM 4.8 °F -5.8 °F -2.2 °F 73% 30.36 in 4.0 mi SSW 5.8 mph - N/A Snow Light Snow
1:29 AM 4.8 °F -4.3 °F -0.9 °F 77% 30.35 in 2.5 mi SSW 4.6 mph - N/A Snow Light Snow
1:49 AM 5.4 °F -5.2 °F 1.2 °F 83% 30.35 in 3.0 mi SSW 5.8 mph - N/A Snow Light Snow
2:10 AM 6.8 °F -2.0 °F 3.2 °F 85% 30.33 in 4.0 mi SSW 4.6 mph - N/A Snow Light Snow
2:30 AM 7.2 °F -3.0 °F 4.1 °F 87% 30.33 in 4.0 mi SW 5.8 mph - N/A Snow Light Snow
2:50 AM 6.8 °F -2.0 °F 3.9 °F 88% 30.32 in 2.0 mi South 4.6 mph - N/A Snow Light Snow
3:10 AM 5.7 °F -3.2 °F 3.2 °F 89% 30.32 in 4.0 mi SSW 4.6 mph - N/A Snow Light Snow
3:30 AM 5.5 °F -5.0 °F 3.2 °F 90% 30.31 in 7.0 mi South 5.8 mph - N/A Snow Light Snow
3:50 AM 5.4 °F -7.6 °F 3.2 °F 91% 30.30 in 3.0 mi South 8.1 mph - N/A Snow Light Snow
4:10 AM 6.6 °F -6.1 °F 4.6 °F 92% 30.30 in 7.0 mi SSW 8.1 mph - N/A Snow Light Snow
4:32 AM 7.7 °F -2.4 °F 5.0 °F 89% 30.28 in 4.0 mi SSW 5.8 mph - N/A Snow Light Snow
4:53 AM 8.4 °F -4.9 °F 5.9 °F 89% 30.27 in 4.0 mi SW 9.2 mph - N/A Snow Light Snow
5:13 AM 10.2 °F -2.7 °F 5.0 °F 79% 30.26 in 10.0 mi SW 9.2 mph - N/A   Overcast
5:33 AM 10.9 °F -2.6 °F 4.6 °F 76% 30.25 in 10.0 mi SW 10.4 mph - N/A   Overcast
5:48 AM 10.9 °F -4.1 °F 5.4 °F 78% 30.24 in 7.0 mi SW 12.7 mph 18.4 mph N/A Snow Light Snow
6:08 AM 11.1 °F -1.6 °F 5.9 °F 80% 30.23 in 5.0 mi SW 9.2 mph 19.6 mph N/A Snow Light Snow
6:28 AM 11.3 °F -5.5 °F 5.9 °F 79% 30.21 in 7.0 mi SW 16.1 mph 19.6 mph N/A Snow Light Snow
6:48 AM 11.3 °F -3.6 °F 6.3 °F 80% 30.20 in 5.0 mi SW 12.7 mph 19.6 mph N/A Snow Light Snow
7:08 AM 11.3 °F -5.5 °F 6.3 °F 80% 30.19 in 7.0 mi SW 16.1 mph 24.2 mph N/A   Overcast
7:28 AM 11.3 °F -4.9 °F 6.1 °F 80% 30.17 in 7.0 mi SW 15.0 mph 21.9 mph N/A   Overcast
7:48 AM 11.3 °F -4.9 °F 5.9 °F 79% 30.15 in 5.0 mi SW 15.0 mph 26.5 mph N/A   Haze
8:11 AM 9.7 °F -7.5 °F 5.5 °F 83% 30.14 in 2.0 mi SSW 16.1 mph 21.9 mph N/A Snow Light Snow
8:31 AM 9.3 °F -8.0 °F 4.8 °F 82% 30.13 in 4.0 mi SSW 16.1 mph 24.2 mph N/A   Overcast
8:51 AM 8.2 °F -10.0 °F 3.9 °F 83% 30.11 in 2.5 mi SSW 17.3 mph 24.2 mph N/A Snow Light Snow
9:11 AM 7.3 °F -10.6 °F 3.0 °F 82% 30.11 in 2.5 mi SSW 16.1 mph 27.6 mph N/A Snow Light Snow
9:31 AM 6.8 °F -12.4 °F 2.3 °F 82% 30.10 in 3.0 mi SSW 18.4 mph 28.8 mph N/A Snow Light Snow
9:51 AM 6.8 °F -11.3 °F 2.3 °F 82% 30.08 in 3.0 mi SSW 16.1 mph 29.9 mph N/A   Haze
10:11 AM 6.8 °F -11.3 °F 2.3 °F 82% 30.07 in 3.0 mi SSW 16.1 mph 27.6 mph N/A Snow Light Snow
10:31 AM 6.4 °F -12.3 °F 1.9 °F 82% 30.05 in 3.0 mi SSW 17.3 mph 25.3 mph N/A   Overcast
10:52 AM 5.9 °F -14.5 °F 0.5 °F 78% 30.04 in 3.0 mi SSW 20.7 mph 28.8 mph N/A   Haze
11:12 AM 5.4 °F -15.3 °F -0.4 °F 77% 30.01 in 2.5 mi SSW 20.7 mph 29.9 mph N/A   Haze
11:27 AM 5.7 °F -15.3 °F -1.1 °F 73% 29.99 in 4.0 mi SSW 21.9 mph 29.9 mph N/A   Haze
11:49 AM 6.3 °F -15.8 °F -1.7 °F 70% 29.94 in 3.0 mi SSW 25.3 mph 32.2 mph N/A   Haze
12:09 PM 6.8 °F -14.3 °F -1.8 °F 68% 29.91 in 2.0 mi SSW 23.0 mph 32.2 mph N/A   Haze
12:29 PM 7.7 °F -12.2 °F -1.7 °F 66% 29.87 in 3.0 mi South 20.7 mph 35.7 mph N/A   Haze
12:49 PM 8.6 °F -11.0 °F -0.9 °F 65% 29.87 in 3.0 mi SSW 20.7 mph 32.2 mph N/A   Haze
1:09 PM 9.5 °F -10.7 °F -0.6 °F 64% 29.84 in 4.0 mi SSW 23.0 mph 31.1 mph N/A   Haze
1:30 PM 10.4 °F -9.9 °F -0.2 °F 62% 29.81 in 3.0 mi SSW 24.2 mph 32.2 mph N/A   Haze
1:50 PM 11.1 °F -6.7 °F -0.2 °F 60% 29.80 in 5.0 mi SSW 18.4 mph 28.8 mph N/A   Haze
2:10 PM 12.2 °F -3.7 °F 0.1 °F 59% 29.78 in 10.0 mi SSW 15.0 mph 19.6 mph N/A   Overcast
2:30 PM 14.4 °F -3.4 °F -0.0 °F 53% 29.76 in 7.0 mi SW 20.7 mph 31.1 mph N/A   Overcast
2:50 PM 14.7 °F -3.8 °F 0.1 °F 53% 29.74 in 5.0 mi SSW 23.0 mph 33.4 mph N/A   Haze
3:10 PM 15.3 °F -3.0 °F 1.2 °F 54% 29.72 in 4.0 mi SSW 23.0 mph 29.9 mph N/A   Haze
3:32 PM 15.6 °F -2.9 °F 3.2 °F 58% 29.69 in 4.0 mi SW 24.2 mph 42.6 mph N/A   Haze
3:52 PM 16.2 °F -1.0 °F 3.9 °F 59% 29.68 in 3.0 mi SW 20.7 mph 34.5 mph N/A   Haze
4:13 PM 16.0 °F -1.3 °F 4.6 °F 61% 29.67 in 5.0 mi SSW 20.7 mph 32.2 mph N/A   Haze
4:33 PM 16.2 °F -0.6 °F 5.0 °F 62% 29.66 in 4.0 mi SSW 19.6 mph 34.5 mph N/A   Haze
4:53 PM 16.2 °F -0.6 °F 6.1 °F 65% 29.66 in 4.0 mi SSW 19.6 mph 32.2 mph N/A Snow Light Snow
5:08 PM 16.5 °F 0.8 °F 6.6 °F 65% 29.66 in 4.0 mi SW 17.3 mph 31.1 mph N/A Snow Light Snow
5:28 PM 16.7 °F 0.1 °F 7.2 °F 66% 29.66 in 4.0 mi SSW 19.6 mph 27.6 mph N/A   Haze
5:48 PM 16.3 °F -0.4 °F 9.0 °F 73% 29.65 in 1.8 mi SW 19.6 mph 31.1 mph N/A Snow Light Snow
6:08 PM 16.7 °F 0.1 °F 8.4 °F 70% 29.63 in 4.0 mi SSW 19.6 mph 29.9 mph N/A Snow Light Snow
6:28 PM 16.7 °F -0.7 °F 10.0 °F 75% 29.62 in 2.0 mi SSW 21.9 mph 31.1 mph N/A Snow Light Snow
6:51 PM 16.7 °F 0.1 °F 10.9 °F 78% 29.61 in 2.5 mi SSW 19.6 mph 32.2 mph N/A Snow Light Snow
7:11 PM 17.2 °F 0.4 °F 10.6 °F 75% 29.61 in 4.0 mi SSW 20.7 mph 31.1 mph N/A Snow Light Snow
7:31 PM 17.4 °F 1.5 °F 10.8 °F 75% 29.60 in 4.0 mi SSW 18.4 mph 29.9 mph N/A Snow Light Snow
7:51 PM 17.6 °F 0.5 °F 12.0 °F 79% 29.58 in 2.5 mi SSW 21.9 mph 29.9 mph N/A Snow Light Snow
8:11 PM 17.6 °F 0.5 °F 12.9 °F 82% 29.56 in 3.0 mi SSW 21.9 mph 29.9 mph N/A Snow Light Snow
8:31 PM 18.1 °F 1.6 °F 13.3 °F 81% 29.54 in 3.0 mi SSW 20.7 mph 31.1 mph N/A Snow Light Snow
8:51 PM 18.1 °F 1.6 °F 14.4 °F 85% 29.52 in 2.0 mi SSW 20.7 mph 32.2 mph N/A Snow Light Snow
9:06 PM 18.1 °F 2.0 °F 14.9 °F 87% 29.52 in 2.0 mi SSW 19.6 mph 28.8 mph N/A Snow Light Snow
9:28 PM 18.5 °F 2.0 °F 15.4 °F 88% 29.50 in 2.5 mi SSW 20.7 mph 28.8 mph N/A Snow Light Snow
9:49 PM 18.9 °F 4.3 °F 16.0 °F 89% 29.49 in 2.0 mi SSW 16.1 mph 26.5 mph N/A Snow Light Snow
10:09 PM 18.9 °F 2.9 °F 16.3 °F 90% 29.47 in 2.0 mi SSW 19.6 mph 26.5 mph N/A Snow Light Snow
10:29 PM 19.2 °F 3.8 °F 16.7 °F 90% 29.45 in 2.0 mi SSW 18.4 mph 26.5 mph N/A Snow Light Snow
10:49 PM 19.4 °F 3.6 °F 16.7 °F 89% 29.44 in 3.0 mi SSW 19.6 mph 25.3 mph N/A Snow Light Snow
11:09 PM 19.8 °F 4.5 °F 17.1 °F 89% 29.41 in 3.0 mi SSW 18.4 mph 27.6 mph N/A Snow Light Snow
11:29 PM 20.1 °F 5.0 °F 17.6 °F 90% 29.40 in 2.5 mi SSW 18.4 mph 24.2 mph N/A Snow Light Snow
11:49 PM 20.3 °F 5.2 °F 17.8 °F 90% 29.38 in 2.0 mi SSW 18.4 mph 26.5 mph N/A Snow Light Snow